Weather History for Ellensburg, WA

Change the Weather History Date:

Friday, July 26, 2013

  Actual Average (KYKM) Record (KYKM)
Temperature  
Mean Temperature 83 °F 72 °F  
Max Temperature 96 °F 90 °F 103 °F (1998)
Min Temperature 70 °F 55 °F 42 °F (1953)
Degree Days  
Heating Degree Days 0 0  
Month to date heating degree days 19  
Since 1 June heating degree days 117  
Since 1 July heating degree days 19  
Cooling Degree Days 18 7  
Month to date cooling degree days 155  
Year to date cooling degree days 240  
Since 1 June cooling degree days 220  
Growing Degree Days 33 (Base 50)    
Moisture  
Dew Point 38 °F    
Average Humidity 23    
Maximum Humidity 38    
Minimum Humidity 13    
Precipitation  
Precipitation 0.00 in 0.00 in 0.21 in (1955)
Month to date precipitation 0.19  
Year to date precipitation 4.48  
Snow  
Snow 0.00 in 0.00 in 0.00 in (2002)
Month to date snowfall 0.0  
Year to date snowfall 8.6  
Since 1 July snowfall 0.0  
Snow Depth -    
Sea Level Pressure  
Sea Level Pressure 29.98 in    
Wind  
Wind Speed 18 mph (NW)    
Max Wind Speed 28 mph    
Max Gust Speed 36 mph    
Visibility 10 miles    
Events      
T = Trace of Precipitation, MM = Missing Value Source: NWS Daily Summary

Daily Weather History Graph

Daily Weather History Graph

Search for Another Location

Airport:

Trip Planner

Search our weather history database for the weather conditions in past years. The results will help you decide how hot, cold, wet, or windy it might be!

Date:

Astronomy

Jul. 26, 2013 Rise Set
Actual Time 5:34 AM PDT 8:41 PM PDT
Civil Twilight 4:58 AM PDT 9:18 PM PDT
Nautical Twilight 4:10 AM PDT 10:05 PM PDT
Astronomical Twilight 3:12 AM PDT 11:02 PM PDT
Moon 10:34 PM PDT (7/26) 10:39 AM PDT (7/26)
Length of Visible Light 16h 20m
Length of Day
15h 07m
Waning Gibbous, 79% of the Moon is Illuminated
Jul 26
Waning Gibbous
Jul 29
Last Quarter
Aug 6
New
Aug 14
First Quarter
Aug 20
Full

Hourly Weather History & Observations

Time (PDT) Temp. Dew Point Humidity Pressure Visibility Wind Dir Wind Speed Gust Speed Precip Events Conditions
12:53 AM 71.1 °F 43.0 °F 36% 29.98 in 10.0 mi NW 18.4 mph - N/A   Clear
1:53 AM 71.1 °F 42.1 °F 35% 29.98 in 10.0 mi NW 17.3 mph - N/A   Clear
2:53 AM 72.0 °F 37.9 °F 29% 29.98 in 10.0 mi NW 20.7 mph - N/A   Clear
3:53 AM 71.1 °F 34.0 °F 26% 29.98 in 10.0 mi NW 19.6 mph 27.6 mph N/A   Clear
4:53 AM 71.1 °F 28.9 °F 21% 29.99 in 10.0 mi NNW 19.6 mph 28.8 mph N/A   Clear
5:53 AM 70.0 °F 27.0 °F 20% 30.00 in 10.0 mi NW 18.4 mph 25.3 mph N/A   Clear
6:53 AM 71.1 °F 28.0 °F 20% 30.02 in 10.0 mi NW 11.5 mph 19.6 mph N/A   Clear
7:53 AM 73.0 °F 32.0 °F 22% 30.03 in 10.0 mi West 3.5 mph - N/A   Clear
8:53 AM 79.0 °F 30.0 °F 17% 30.03 in 10.0 mi NW 17.3 mph 20.7 mph N/A   Clear
9:53 AM 82.9 °F 33.1 °F 17% 30.02 in 10.0 mi NW 15.0 mph - N/A   Clear
10:53 AM 89.1 °F 33.1 °F 14% 30.00 in 10.0 mi NW 16.1 mph 24.2 mph N/A   Clear
11:53 AM 91.9 °F 36.0 °F 14% 29.99 in 10.0 mi WNW 18.4 mph - N/A   Clear
12:53 PM 95.0 °F 36.0 °F 13% 29.98 in 10.0 mi NW 21.9 mph - N/A   Clear
1:53 PM 96.1 °F 37.9 °F 13% 29.96 in 10.0 mi WNW 17.3 mph 29.9 mph N/A   Clear
2:53 PM 95.0 °F 36.0 °F 13% 29.95 in 10.0 mi WNW 27.6 mph 33.4 mph N/A   Clear
3:53 PM 93.9 °F 41.0 °F 16% 29.95 in 10.0 mi WNW 20.7 mph 32.2 mph N/A   Clear
4:53 PM 91.9 °F 42.1 °F 18% 29.95 in 10.0 mi WNW 25.3 mph 33.4 mph N/A   Clear
5:53 PM 90.0 °F 42.1 °F 19% 29.94 in 10.0 mi WNW 25.3 mph 34.5 mph N/A   Clear
6:53 PM 86.0 °F 44.1 °F 23% 29.95 in 10.0 mi WNW 26.5 mph 35.7 mph N/A   Clear
7:53 PM 82.0 °F 44.1 °F 26% 29.96 in 10.0 mi WNW 27.6 mph 35.7 mph N/A   Clear
8:53 PM 77.0 °F 43.0 °F 30% 29.96 in 10.0 mi WNW 16.1 mph 28.8 mph N/A   Clear
9:53 PM 75.0 °F 44.1 °F 33% 29.99 in 10.0 mi NW 19.6 mph 26.5 mph N/A   Clear
10:53 PM 72.0 °F 44.1 °F 37% 30.00 in 10.0 mi NW 16.1 mph 21.9 mph N/A   Clear
11:53 PM 71.1 °F 44.1 °F 38% 29.98 in 10.0 mi NW 13.8 mph 23.0 mph N/A   Clear